GW1851 Weather Reports


time (UTC)temp
C
wind
direction
speed
KPH
gust
KPH
rain 1hr
cm
rain 24hr
cm
rain mn
cm
humidity
%
barometer
mb
20260504130510 16 217 4.8 4.8 0.00 0.00 0.00 81 1005.0
20260504110358 10 220 0.0 0.0 0.00 0.00 0.00 95 1005.7
20260504100315 9 220 0.0 0.0 0.00 0.00 0.00 95 1006.0
20260504081708 10 220 0.0 0.0 0.00 0.00 0.00 92 1006.6
20260504081205 10 220 0.0 0.0 0.00 0.00 0.00 91 1006.1
20260504080701 10 220 0.0 0.0 0.00 0.00 0.00 91 1006.3
20260504080157 10 220 0.0 0.0 0.00 0.00 0.00 90 1006.4
20260504070125 10 214 0.0 0.0 0.00 0.00 0.00 90 1007.3
20260504050514 12 214 0.0 0.0 0.00 0.00 0.00 84 1007.8
20260504050011 12 214 0.0 0.0 0.00 0.00 0.00 83 1007.9
20260504045508 12 215 0.0 0.0 0.00 0.00 0.00 84 1007.8
20260504045003 12 215 0.0 0.0 0.00 0.00 0.00 82 1007.9
20260504044501 12 215 0.0 0.0 0.00 0.00 0.00 81 1007.9
20260504043958 13 215 0.0 0.0 0.00 0.00 0.00 80 1008.0
20260504043455 13 214 0.0 0.0 0.00 0.00 0.00 78 1008.1
20260504042952 12 215 0.0 0.0 0.00 0.00 0.00 81 1008.3
20260504042448 12 215 0.0 0.0 0.00 0.00 0.00 83 1008.3
20260504041945 12 215 0.0 0.0 0.00 0.00 0.00 82 1008.5
20260504041442 12 215 0.0 0.0 0.00 0.00 0.00 82 1008.4
20260504040937 12 215 0.0 0.0 0.00 0.00 0.00 79 1008.3
20260504040436 12 215 0.0 0.0 0.00 0.00 0.00 82 1008.3
20260504035931 12 215 0.0 0.0 0.00 0.00 0.00 80 1008.2
20260504035429 12 215 0.0 0.0 0.00 0.00 0.00 82 1008.5
20260504034925 12 215 0.0 0.0 0.00 0.00 0.00 81 1008.5
20260504034423 12 215 0.0 0.0 0.00 0.00 0.00 81 1008.5
20260504033920 12 215 0.0 0.0 0.00 0.00 0.00 81 1008.7
20260504033418 12 215 0.0 0.0 0.00 0.00 0.00 80 1009.0
20260504032914 12 215 0.0 0.0 0.00 0.00 0.00 80 1009.1
20260504032411 12 215 0.0 0.0 0.00 0.00 0.00 79 1009.0
20260504031908 13 215 0.0 0.0 0.00 0.00 0.00 78 1008.7
20260504031405 13 216 0.0 0.0 0.00 0.00 0.00 78 1008.8
20260504030902 13 216 0.0 0.0 0.00 0.00 0.00 77 1008.7
20260504030359 13 216 0.0 0.0 0.00 0.00 0.00 77 1008.5
20260504025854 13 216 0.0 0.0 0.00 0.00 0.00 77 1008.7
20260504025352 13 216 0.0 0.0 0.00 0.00 0.00 75 1008.7
20260504024848 14 216 0.0 0.0 0.00 0.00 0.00 75 1008.7
20260504024345 15 216 0.0 0.0 0.00 0.00 0.00 71 1008.8
20260504023842 14 216 0.0 0.0 0.00 0.00 0.00 71 1008.7
20260504023339 14 216 0.0 0.0 0.00 0.00 0.00 72 1008.7
20260504022834 15 216 0.0 0.0 0.00 0.00 0.00 70 1008.7
20260504022331 15 216 0.0 0.0 0.00 0.00 0.00 69 1009.1
20260504021828 15 216 0.0 0.0 0.00 0.00 0.00 69 1008.8
20260504021325 15 216 0.0 0.0 0.00 0.00 0.00 70 1008.8
20260504020822 15 217 0.0 0.0 0.00 0.00 0.00 69 1008.7
20260504020319 15 217 0.0 0.0 0.00 0.00 0.00 69 1008.5
20260504015815 15 218 0.0 0.0 0.00 0.00 0.00 68 1008.5
20260504015311 15 218 0.0 0.0 0.00 0.00 0.00 68 1008.5
20260504014808 16 218 0.0 0.0 0.00 0.00 0.00 67 1008.7
20260504014303 16 218 0.0 0.0 0.00 0.00 0.00 67 1008.8
20260504013801 16 218 0.0 0.0 0.00 0.00 0.00 66 1008.6
20260504013259 16 218 0.0 0.0 0.00 0.00 0.00 66 1008.6
20260504012755 16 218 0.0 0.0 0.00 0.00 0.00 66 1008.5
20260504012253 16 218 0.0 0.0 0.00 0.00 0.00 65 1008.6
20260504011750 16 218 0.0 0.0 0.00 0.00 0.00 65 1008.5
20260504011247 17 218 0.0 0.0 0.00 0.00 0.00 64 1008.4
20260504010743 17 218 0.0 0.0 0.00 0.00 0.00 63 1008.5
20260504010238 17 218 0.0 0.0 0.00 0.00 0.00 62 1008.4
20260504005736 17 218 0.0 0.0 0.00 0.00 0.00 62 1008.4
20260504005233 17 218 0.0 0.0 0.00 0.00 0.00 61 1008.2
20260504004730 18 218 0.0 0.0 0.00 0.00 0.00 60 1008.5
20260504004227 18 218 0.0 0.0 0.00 0.00 0.00 60 1008.3
20260504003723 18 218 0.0 0.0 0.00 0.00 0.00 60 1008.1
20260504003221 18 218 0.0 0.0 0.00 0.00 0.00 58 1008.3
20260504002717 19 218 0.0 0.0 0.00 0.00 0.00 59 1008.4
20260504002214 19 211 0.0 0.0 0.00 0.00 0.00 58 1008.5
20260504001712 20 211 0.0 0.0 0.00 0.00 0.00 56 1008.2
20260504001209 20 221 1.6 1.6 0.00 0.00 0.00 55 1008.6
20260504000705 20 232 3.2 3.2 0.00 0.00 0.00 55 1008.4
20260504000204 20 218 0.0 0.0 0.00 0.00 0.00 55 1008.4
20260503235701 20 222 3.2 3.2 0.00 0.00 0.00 54 1008.6
20260503235157 20 227 3.2 3.2 0.00 0.00 0.00 55 1008.3
20260503234655 20 214 0.0 1.6 0.00 0.00 0.00 54 1008.3
20260503234153 20 215 3.2 3.2 0.00 0.00 0.00 54 1008.4
20260503233649 20 224 0.0 1.6 0.00 0.00 0.00 54 1008.5
20260503233145 20 223 4.8 8.0 0.00 0.00 0.00 53 1008.5
20260503232642 20 232 3.2 3.2 0.00 0.00 0.00 53 1008.4
20260503232140 20 231 1.6 3.2 0.00 0.00 0.00 53 1008.6
20260503231638 20 240 4.8 4.8 0.00 0.00 0.00 52 1008.4
20260503231134 20 222 3.2 3.2 0.00 0.00 0.00 52 1008.6
20260503230631 20 215 1.6 1.6 0.00 0.00 0.00 52 1008.6
20260503230128 20 248 4.8 8.0 0.00 0.00 0.00 52 1008.6
20260503225626 20 206 3.2 3.2 0.00 0.00 0.00 51 1008.4
20260503225125 20 227 4.8 8.0 0.00 0.00 0.00 53 1008.7
20260503224623 20 243 4.8 4.8 0.00 0.00 0.00 52 1008.8
20260503224121 20 236 1.6 3.2 0.00 0.00 0.00 53 1009.0
20260503223618 20 251 4.8 8.0 0.00 0.00 0.00 52 1009.0
20260503223114 20 244 4.8 4.8 0.00 0.00 0.00 52 1008.7
20260503222612 21 247 4.8 4.8 0.00 0.00 0.00 51 1008.4
20260503222109 20 219 0.0 1.6 0.00 0.00 0.00 51 1008.4
20260503221608 20 224 1.6 1.6 0.00 0.00 0.00 53 1008.5
20260503221105 20 255 4.8 8.0 0.00 0.00 0.00 52 1008.5
20260503220601 20 256 4.8 9.7 0.00 0.00 0.00 53 1008.7
20260503220058 20 225 4.8 4.8 0.00 0.00 0.00 53 1008.8
20260503215555 20 244 4.8 4.8 0.00 0.00 0.00 53 1008.7
20260503215052 20 229 0.0 0.0 0.00 0.00 0.00 55 1008.6
20260503214550 20 232 0.0 0.0 0.00 0.00 0.00 54 1008.8
20260503214046 20 244 4.8 8.0 0.00 0.00 0.00 53 1009.1
20260503213545 19 220 1.6 4.8 0.00 0.00 0.00 55 1009.1
20260503213041 18 221 0.0 0.0 0.00 0.00 0.00 57 1009.1
20260503212538 19 222 0.0 0.0 0.00 0.00 0.00 56 1008.8
20260503212036 19 222 0.0 0.0 0.00 0.00 0.00 55 1008.7
20260503211533 19 224 1.6 1.6 0.00 0.00 0.00 54 1008.3
20260503211028 19 212 0.0 0.0 0.00 0.00 0.00 53 1009.0
20260503210525 19 221 1.6 3.2 0.00 0.00 0.00 53 1009.0
20260503210021 19 214 1.6 1.6 0.00 0.00 0.00 54 1008.7
20260503205518 19 218 1.6 1.6 0.00 0.00 0.00 52 1008.7
20260503205014 19 225 1.6 3.2 0.00 0.00 0.00 50 1009.4
20260503204512 19 228 0.0 1.6 0.00 0.00 0.00 51 1009.2
20260503204008 18 230 4.8 4.8 0.00 0.00 0.00 52 1009.8
20260503203506 18 210 0.0 1.6 0.00 0.00 0.00 51 1009.8
20260503203002 18 219 0.0 0.0 0.00 0.00 0.00 50 1009.5
20260503202500 18 228 0.0 0.0 0.00 0.00 0.00 51 1009.2
20260503201958 18 248 8.0 11.3 0.00 0.00 0.00 50 1009.3
20260503201456 18 233 3.2 4.8 0.00 0.00 0.00 52 1009.0
20260503200953 18 232 3.2 4.8 0.00 0.00 0.00 49 1009.3
20260503200449 18 213 1.6 3.2 0.00 0.00 0.00 50 1010.1
20260503195946 18 230 3.2 3.2 0.00 0.00 0.00 50 1010.1
20260503195443 18 220 1.6 1.6 0.00 0.00 0.00 49 1009.8
20260503194940 18 208 3.2 4.8 0.00 0.00 0.00 50 1009.4
20260503194437 18 132 4.8 4.8 0.00 0.00 0.00 48 1009.6
20260503193932 18 220 1.6 1.6 0.00 0.00 0.00 48 1009.9
20260503193428 18 221 0.0 1.6 0.00 0.00 0.00 52 1010.3
20260503192923 18 221 1.6 1.6 0.00 0.00 0.00 49 1010.8
20260503192420 18 263 1.6 1.6 0.00 0.00 0.00 49 1010.9
20260503191916 18 230 1.6 3.2 0.00 0.00 0.00 49 1011.0
20260503191414 19 238 4.8 4.8 0.00 0.00 0.00 47 1009.9
20260503190910 19 189 6.4 9.7 0.00 0.00 0.00 45 1009.8
20260503190408 18 236 1.6 3.2 0.00 0.00 0.00 48 1010.1
20260503185904 18 207 3.2 3.2 0.00 0.00 0.00 48 1010.9
20260503185400 18 259 6.4 9.7 0.00 0.00 0.00 46 1011.3
20260503184900 18 229 4.8 4.8 0.00 0.00 0.00 48 1010.6
20260503184356 18 123 6.4 8.0 0.00 0.00 0.00 47 1010.0
20260503183852 18 213 3.2 4.8 0.00 0.00 0.00 47 1010.6
20260503183349 18 229 4.8 4.8 0.00 0.00 0.00 46 1010.3
20260503182847 18 214 3.2 4.8 0.00 0.00 0.00 46 1010.7
20260503182346 18 205 1.6 3.2 0.00 0.00 0.00 47 1011.1
20260503181842 18 258 4.8 8.0 0.00 0.00 0.00 45 1011.1
20260503181339 19 207 4.8 4.8 0.00 0.00 0.00 45 1011.2
20260503180836 18 231 3.2 3.2 0.00 0.00 0.00 49 1010.9
20260503180334 18 223 1.6 3.2 0.00 0.00 0.00 49 1011.7
20260503175830 18 226 1.6 3.2 0.00 0.00 0.00 46 1011.7
20260503175328 18 260 3.2 4.8 0.00 0.00 0.00 46 1011.4
20260503174823 18 217 4.8 9.7 0.00 0.00 0.00 45 1011.4
20260503174322 19 203 1.6 1.6 0.00 0.00 0.00 45 1011.7
20260503173817 20 208 3.2 8.0 0.00 0.00 0.00 45 1011.5
20260503173314 20 238 3.2 9.7 0.00 0.00 0.00 47 1011.8
20260503172810 19 169 4.8 4.8 0.00 0.00 0.00 45 1012.1
20260503172308 18 228 3.2 3.2 0.00 0.00 0.00 47 1012.0
20260503171804 18 253 8.0 12.9 0.00 0.00 0.00 45 1012.4
20260503171301 19 219 4.8 8.0 0.00 0.00 0.00 44 1012.5
20260503170758 18 183 8.0 11.3 0.00 0.00 0.00 45 1012.6
20260503170254 18 227 6.4 9.7 0.00 0.00 0.00 46 1012.6
20260503160217 16 201 4.8 4.8 0.00 0.00 0.00 53 1013.1
20260503150647 14 220 1.6 1.6 0.00 0.00 0.00 57 1014.7
20260503150143 15 230 1.6 3.2 0.00 0.00 0.00 57 1014.8